Regional Weather Roundup
Issued by NWS Nashville, TN

Home | Current Version | Previous Version | Text Only | Print | Product List | Glossary On
Versions: 1 2 3 4 5 6 7 8 9 10 11 12 13 14 15 16 17 18 19 20 21 22 23 24 25 26 27 28
000
ASUS44 KOHX 161810
RWROHX
MIDDLE TENNESSEE HOURLY WEATHER ROUNDUP
NATIONAL WEATHER SERVICE NASHVILLE TN
100 PM CDT WED AUG 16 2017

NOTE: "FAIR" INDICATES FEW OR NO CLOUDS BELOW 12,000 FEET WITH
NO SIGNIFICANT WEATHER AND/OR OBSTRUCTIONS TO VISIBILITY.

* THESE REPORTS ARE NOT UNDER NWS QUALITY CONTROL AND MAY NOT
  REPORT WEATHER SUCH AS PRECIPITATION AND FOG.


TNZ005>011-023>034-057-059-062>066-078-080-161900
...NORTHERN MIDDLE TENNESSEE...

CITY           SKY/WX    TMP DP  RH WIND       PRES   REMARKS
CLARKSVILLE    MOSUNNY   87  74  64 SW8       30.01F HX  95
CROSSVILLE     CLOUDY    80  70  71 VRB5      30.13F
GALLATIN       CLOUDY    84  77  79 CALM      30.06F HX  94
DICKSON        MOSUNNY   88  75  65 SW8       30.04F HX  97
NASHVILLE      PTSUNNY   87  74  64 SW5       30.04F HX  95
PORTLAND       MOSUNNY   86  75  70 S9        30.04S HX  95
SMYRNA         PTSUNNY   87  77  72 SE8       30.05F HX  99
SPARTA         MOSUNNY   84  75  74 VRB3G12   30.07F HX  92
SPRINGFIELD    MOSUNNY   88  77  70 S10       30.01F HX 100
WEST NASHVILLE PTSUNNY   82  77  83 N6        30.01F HX  91
$$
TNZ056-058-060-061-075>077-079-093>097-161900
...SOUTHERN MIDDLE TENNESSEE...

CITY           SKY/WX    TMP DP  RH WIND       PRES   REMARKS
COLUMBIA       MOSUNNY   84  77  79 S7        30.03F HX  94
FAYETTEVILLE   CLOUDY    82  73  74 SW6       30.08F
MCMINNVILLE    MOSUNNY   86  79  79 W8        30.08F HX  99
MURFREESBORO   PTSUNNY   85  74  69 S6        30.04F HX  92
PULASKI        CLOUDY    82  75  78 SW5       30.06F
SHELBYVILLE    PTSUNNY   84  75  74 SW5       30.06F HX  92
TULLAHOMA      PTSUNNY   82  72  69 CALM      30.09F
WINCHESTER     SUNNY     84  75  74 VRB6      30.07F HX  92
$$


...KEY TO REMARKS...
VSB - VISIBILITY IN MILES
WCI - WIND CHILL INDEX
HX  - HEAT INDEX





USA.gov is the U.S. government's official web portal to all federal, state and local government web resources and services.